Simultaneous Nadir Overpasses (SNOs) Predictions

Prediction of SNOs between GOES-15 and TERRA Satellite Orbit:

Table of predicted SNOs for the next 14.0 days since TLE Epoch: 8/12/2023
Index Date Time (GOES-15) GOES-15 Lat,Lon TERRA Lat,Lon Distance(km) Time Diff (sec)
1 08/13/2023 12:06:31 0.11, 147.71 0.31, 148.78 120.82 80
2 08/14/2023 00:29:26 -0.16, 147.11 0.51, 143.83 372.44 80
3 08/16/2023 00:10:30 -0.12, 145.07 -0.68, 147.71 299.81 80
4 08/16/2023 12:33:31 0.17, 144.61 -0.24, 142.75 212.24 80
5 08/18/2023 12:14:35 0.14, 142.56 0.97, 146.62 461.15 80
6 08/19/2023 00:37:29 -0.18, 141.95 -0.10, 141.68 31.46 80
7 08/21/2023 12:38:54 0.18, 139.43 0.41, 140.59 131.30 80
8 08/22/2023 01:01:47 -0.21, 138.82 0.45, 135.65 360.88 80
9 08/24/2023 00:42:50 -0.18, 136.76 -0.75, 139.53 314.19 80
10 08/24/2023 13:05:51 0.22, 136.29 -0.16, 134.56 197.26 80
